EW2328 Weather Reports


time (UTC)temp
F
wind
direction
speed
knots
gust
knots
rain 1hr
in
rain 24hr
in
rain mn
in
humidity
%
barometer
mb
20260505041518 69 203 1.7 7.0 0.00 0.00 0.00 60 1006.7
20260505040519 69 225 0.9 3.5 0.00 0.00 0.00 61 1006.7
20260505035519 69 203 1.7 6.1 0.00 0.00 0.00 62 1006.7
20260505034519 69 225 0.9 4.3 0.00 0.00 0.00 62 1006.8
20260505033519 69 203 0.9 3.5 0.00 0.00 0.00 62 1006.7
20260505032519 68 225 0.9 3.5 0.00 0.00 0.00 62 1006.7
20260505031519 69 225 0.9 2.6 0.00 0.00 0.00 62 1006.9
20260505030519 69 225 0.9 3.5 0.00 0.00 0.00 62 1006.7
20260505025519 69 225 0.9 3.5 0.00 0.00 0.00 63 1006.7
20260505024519 68 225 0.9 2.6 0.00 0.00 0.00 63 1006.5
20260505023539 68 203 0.9 1.7 0.00 0.00 0.00 64 1006.4
20260505022519 69 203 0.9 6.1 0.00 0.00 0.00 63 1006.2
20260505021519 69 203 1.7 3.5 0.00 0.00 0.00 63 1006.0
20260505020519 69 203 1.7 2.6 0.00 0.00 0.00 63 1005.9
20260505015519 69 203 1.7 3.5 0.00 0.00 0.00 62 1005.6
20260505014519 69 203 0.9 2.6 0.00 0.00 0.00 61 1005.6
20260505013519 70 203 0.9 2.6 0.00 0.00 0.00 61 1005.6
20260505012539 70 203 0.9 1.7 0.00 0.00 0.00 60 1005.5
20260505011519 70 203 1.7 3.5 0.00 0.00 0.00 59 1005.3
20260505010519 71 203 0.9 2.6 0.00 0.00 0.00 59 1005.5
20260505005519 71 225 0.9 1.7 0.00 0.00 0.00 57 1005.4
20260505004519 71 203 0.9 2.6 0.00 0.00 0.00 56 1005.4
20260505003517 72 203 1.7 3.5 0.00 0.00 0.00 56 1005.3
20260505002539 72 225 0.9 5.2 0.00 0.00 0.00 55 1005.3
20260505001559 73 203 0.9 5.2 0.00 0.00 0.00 54 1005.4
20260505000519 73 225 0.9 1.7 0.00 0.00 0.00 53 1005.5
20260504235519 73 0.0 2.6 0.00 0.00 0.00 53 1005.6
20260504234519 73 0.0 3.5 0.00 0.00 0.00 53 1005.8
20260504233539 74 225 0.9 6.1 0.00 0.00 0.00 52 1005.8
20260504232518 74 225 1.7 4.3 0.00 0.00 0.00 50 1005.9
20260504231518 75 225 0.9 5.2 0.00 0.00 0.00 50 1005.8
20260504230519 75 203 0.9 5.2 0.00 0.00 0.00 52 1005.8
20260504225519 74 225 1.7 7.8 0.00 0.00 0.00 55 1006.0
20260504224519 73 203 0.9 2.6 0.00 0.00 0.00 58 1006.1
20260504223519 73 203 0.9 3.5 0.00 0.00 0.00 56 1006.3
20260504222519 74 225 0.9 3.5 0.00 0.00 0.00 54 1006.3
20260504221519 74 203 0.9 1.7 0.00 0.00 0.00 55 1006.3
20260504220518 74 0.0 0.0 0.00 0.00 0.00 56 1006.5
20260504215519 74 0.0 1.7 0.00 0.00 0.00 56 1006.5
20260504214539 74 0.0 1.7 0.00 0.00 0.00 55 1006.6
20260504213519 74 0.0 0.0 0.00 0.00 0.00 58 1007.0
20260504212518 74 0.0 0.9 0.00 0.00 0.00 56 1007.0
20260504211518 74 0.0 0.0 0.00 0.00 0.00 57 1007.0
20260504210538 74 0.0 2.6 0.00 0.00 0.00 59 1007.4
20260504205518 74 0.0 0.9 0.00 0.00 0.00 58 1007.3
20260504204518 73 0.0 3.5 0.00 0.00 0.00 59 1007.4
20260504203518 73 0.0 0.9 0.00 0.00 0.00 61 1007.6
20260504202518 73 0.0 1.7 0.00 0.00 0.00 60 1008.0
20260504201518 73 0.0 2.6 0.00 0.00 0.00 57 1007.9
20260504200518 73 0.0 1.7 0.00 0.00 0.00 61 1007.9
20260504195518 71 0.0 0.9 0.00 0.00 0.00 65 1007.9
20260504194519 70 203 0.9 3.5 0.00 0.00 0.00 66 1008.1
20260504193519 68 0.0 2.6 0.00 0.00 0.00 68 1008.3
20260504192518 67 0.0 1.7 0.00 0.00 0.00 71 1008.3
20260504191519 66 0.0 0.9 0.00 0.00 0.00 72 1008.4
20260504190519 66 0.0 0.9 0.00 0.00 0.00 72 1009.1
20260504185519 67 0.0 0.0 0.00 0.00 0.00 69 1009.2
20260504184518 68 0.0 1.7 0.00 0.00 0.00 64 1009.4
20260504183519 69 248 0.9 2.6 0.00 0.00 0.00 62 1009.3
20260504182518 70 293 0.9 1.7 0.00 0.00 0.00 61 1009.1
20260504181518 71 225 0.9 2.6 0.00 0.00 0.00 61 1008.7
20260504180539 71 248 0.9 2.6 0.00 0.00 0.00 61 1008.5
20260504175518 71 225 0.9 5.2 0.00 0.00 0.00 60 1008.2
20260504174519 70 203 3.5 10.4 0.00 0.00 0.00 62 1008.1
20260504173518 70 203 1.7 6.1 0.00 0.00 0.00 64 1008.1
20260504172518 70 203 0.9 2.6 0.00 0.00 0.00 62 1008.8
20260504171518 69 203 0.9 5.2 0.00 0.00 0.00 63 1008.6
20260504170518 69 203 1.7 7.0 0.00 0.00 0.00 63 1008.6
20260504150518 66 225 0.9 7.0 0.00 0.00 0.00 64 1009.3
20260504140519 62 203 0.9 5.2 0.00 0.00 0.00 68 1009.6
20260504130519 57 203 2.6 6.1 0.00 0.00 0.00 73 1009.7
20260504110518 52 203 1.7 3.5 0.00 0.00 0.00 72 1009.7
20260504100518 51 203 1.7 3.5 0.00 0.00 0.00 71 1010.2
20260504081518 52 203 2.6 4.3 0.00 0.00 0.00 67 1010.8
20260504080518 52 203 2.6 6.1 0.00 0.00 0.00 66 1010.9
20260504050538 53 203 1.7 5.2 0.00 0.00 0.00 65 1012.6
20260504045518 53 203 1.7 3.5 0.00 0.00 0.00 65 1012.7
20260504044518 53 203 2.6 5.2 0.00 0.00 0.00 65 1012.7
20260504043518 53 203 2.6 5.2 0.00 0.00 0.00 64 1012.8
20260504042518 53 203 1.7 5.2 0.00 0.00 0.00 65 1012.9